Hourly Weather Snidavka

Today, 16 January, Saturday

Time Temperature Precipitation Wind Pressure Humidity
00:00 -14°C° 0 mm 2 mps 677 mmHg 85%
01:00 -15°C° 0 mm 3 mps 676 mmHg 81%
02:00 -12°C° 0 mm 1 mps 676 mmHg 100%
03:00 -14°C° 0 mm 2 mps 676 mmHg 92%
04:00 -15°C° 0 mm 3 mps 676 mmHg 98%
05:00 -15°C° 0 mm 3 mps 676 mmHg 100%
06:00 -16°C° 0.2 mm 4 mps 676 mmHg 100%
07:00 -18°C° 0.2 mm 4 mps 676 mmHg 100%
08:00 -18°C° 0.1 mm 3 mps 676 mmHg 100%
09:00 -18°C° 0 mm 2 mps 676 mmHg 100%
10:00 -18°C° 0 mm 2 mps 676 mmHg 100%
11:00 -17°C° 0 mm 2 mps 676 mmHg 100%
12:00 -14°C° 0 mm 1 mps 676 mmHg 100%
13:00 -16°C° 0 mm 2 mps 676 mmHg 100%
14:00 -12°C° 0 mm 2 mps 677 mmHg 86%
15:00 -14°C° 0 mm 3 mps 676 mmHg 100%
16:00 -12°C° 0 mm 1 mps 677 mmHg 100%
17:00 -15°C° 0 mm 2 mps 676 mmHg 96%
18:00 -17°C° 0 mm 3 mps 676 mmHg 90%
19:00 -17°C° 0 mm 3 mps 676 mmHg 91%
20:00 -18°C° 0 mm 4 mps 676 mmHg 90%
21:00 -16°C° 0 mm 3 mps 676 mmHg 92%
22:00 -16°C° 0 mm 3 mps 676 mmHg 95%
23:00 -14°C° 0 mm 2 mps 676 mmHg 100%

Tomorrow, 17 January, Sunday

Time Temperature Precipitation Wind Pressure Humidity
00:00 -14°C° 0 mm 2 mps 676 mmHg 100%
01:00 -13°C° 0 mm 2 mps 676 mmHg 100%
02:00 -13°C° 0 mm 2 mps 676 mmHg 94%
03:00 -15°C° 0 mm 3 mps 675 mmHg 88%
04:00 -15°C° 0 mm 3 mps 675 mmHg 83%
05:00 -15°C° 0 mm 3 mps 675 mmHg 78%
06:00 -15°C° 0 mm 3 mps 675 mmHg 78%
07:00 -15°C° 0 mm 3 mps 675 mmHg 76%
08:00 -14°C° 0 mm 2 mps 675 mmHg 78%
09:00 -14°C° 0 mm 2 mps 676 mmHg 79%
10:00 -13°C° 0 mm 2 mps 676 mmHg 81%
11:00 -10°C° 0 mm 1 mps 677 mmHg 86%
12:00 -10°C° 0 mm 1 mps 677 mmHg 94%
13:00 -9°C° 0 mm 1 mps 677 mmHg 96%
14:00 -9°C° 0 mm 1 mps 677 mmHg 99%
15:00 -10°C° 0 mm 1 mps 677 mmHg 100%
16:00 -10°C° 0.1 mm 1 mps 677 mmHg 100%
17:00 -11°C° 0 mm 0 mps 677 mmHg 100%
18:00 -12°C° 0 mm 1 mps 677 mmHg 100%
19:00 -13°C° 0.1 mm 1 mps 677 mmHg 100%
20:00 -13°C° 0.1 mm 1 mps 677 mmHg 100%
21:00 -13°C° 0 mm 1 mps 677 mmHg 100%
22:00 -13°C° 0 mm 1 mps 677 mmHg 100%
23:00 -15°C° 0.1 mm 2 mps 678 mmHg 100%

Day after tomorrow, 18 January, Monday

Time Temperature Precipitation Wind Pressure Humidity
00:00 -15°C° 0.2 mm 2 mps 678 mmHg 100%
01:00 -15°C° 0.3 mm 2 mps 678 mmHg 100%
02:00 -15°C° 0.3 mm 2 mps 678 mmHg 100%
03:00 -15°C° 0.4 mm 2 mps 678 mmHg 100%
04:00 -16°C° 0.3 mm 2 mps 677 mmHg 100%
05:00 -16°C° 0.2 mm 2 mps 677 mmHg 100%
06:00 -17°C° 0 mm 2 mps 677 mmHg 100%
07:00 -16°C° 0 mm 1 mps 677 mmHg 100%
08:00 -17°C° 0 mm 1 mps 677 mmHg 100%
09:00 -17°C° 0 mm 1 mps 677 mmHg 100%
10:00 -16°C° 0 mm 1 mps 678 mmHg 100%
11:00 -15°C° 0 mm 1 mps 678 mmHg 100%
12:00 -14°C° 0 mm 1 mps 678 mmHg 100%
13:00 -14°C° 0 mm 1 mps 678 mmHg 100%
14:00 -13°C° 0 mm 1 mps 678 mmHg 100%
15:00 -13°C° 0 mm 1 mps 678 mmHg 100%
16:00 -13°C° 0 mm 1 mps 678 mmHg 100%
17:00 -14°C° 0 mm 1 mps 678 mmHg 100%
18:00 -14°C° 0 mm 1 mps 678 mmHg 100%
19:00 -15°C° 0 mm 1 mps 678 mmHg 100%
20:00 -15°C° 0 mm 1 mps 679 mmHg 95%
21:00 -17°C° 0 mm 2 mps 679 mmHg 87%
22:00 -17°C° 0 mm 2 mps 679 mmHg 82%
23:00 -16°C° 0 mm 2 mps 679 mmHg 78%

19 January, Tuesday

Time Temperature Precipitation Wind Pressure Humidity
00:00 -17°C° 0 mm 3 mps 679 mmHg 75%
01:00 -16°C° 0 mm 3 mps 679 mmHg 72%
02:00 -16°C° 0 mm 3 mps 679 mmHg 69%
03:00 -16°C° 0 mm 3 mps 679 mmHg 69%
04:00 -15°C° 0 mm 2 mps 679 mmHg 69%
05:00 -15°C° 0 mm 3 mps 679 mmHg 70%
06:00 -15°C° 0 mm 3 mps 679 mmHg 71%
07:00 -15°C° 0 mm 3 mps 679 mmHg 72%
08:00 -14°C° 0 mm 3 mps 680 mmHg 73%
09:00 -13°C° 0 mm 3 mps 680 mmHg 72%
10:00 -12°C° 0 mm 3 mps 680 mmHg 77%
11:00 -10°C° 0 mm 3 mps 680 mmHg 86%
12:00 -9°C° 0 mm 3 mps 680 mmHg 93%
13:00 -8°C° 0 mm 4 mps 680 mmHg 94%
14:00 -7°C° 0 mm 4 mps 681 mmHg 93%
15:00 -7°C° 0 mm 5 mps 681 mmHg 93%
16:00 -8°C° 0.1 mm 6 mps 680 mmHg 93%
17:00 -9°C° 0.1 mm 6 mps 680 mmHg 90%
18:00 -9°C° 0.1 mm 7 mps 680 mmHg 88%
19:00 -9°C° 0.1 mm 7 mps 680 mmHg 87%
20:00 -10°C° 0.1 mm 8 mps 680 mmHg 87%
21:00 -10°C° 0.1 mm 8 mps 680 mmHg 85%
22:00 -10°C° 0 mm 9 mps 680 mmHg 85%
23:00 -9°C° 0.1 mm 9 mps 680 mmHg 84%

20 January, Wednesday

Time Temperature Precipitation Wind Pressure Humidity
00:00 -9°C° 0.1 mm 9 mps 679 mmHg 83%
01:00 -9°C° 0 mm 9 mps 679 mmHg 82%
02:00 -8°C° 0 mm 8 mps 679 mmHg 82%
03:00 -8°C° 0 mm 7 mps 678 mmHg 84%
04:00 -6°C° 0.1 mm 6 mps 678 mmHg 85%
05:00 -6°C° 0.1 mm 6 mps 678 mmHg 87%
06:00 -6°C° 0.2 mm 6 mps 678 mmHg 89%
07:00 -6°C° 0.4 mm 6 mps 678 mmHg 91%
08:00 -5°C° 0.2 mm 6 mps 678 mmHg 91%
09:00 -5°C° 0.1 mm 6 mps 678 mmHg 90%
10:00 -4°C° 0 mm 6 mps 678 mmHg 89%
11:00 -3°C° 0 mm 6 mps 679 mmHg 88%
12:00 -2°C° 0 mm 7 mps 679 mmHg 86%
13:00 -2°C° 0 mm 8 mps 679 mmHg 85%
14:00 -2°C° 0 mm 8 mps 679 mmHg 84%
15:00 -2°C° 0 mm 8 mps 680 mmHg 84%
16:00 -3°C° 0 mm 9 mps 680 mmHg 83%
17:00 -2°C° 0 mm 8 mps 680 mmHg 83%
18:00 -2°C° 0 mm 8 mps 680 mmHg 83%
19:00 -2°C° 0 mm 8 mps 681 mmHg 82%
20:00 -2°C° 0 mm 7 mps 681 mmHg 80%
21:00 -2°C° 0 mm 7 mps 681 mmHg 76%
22:00 -2°C° 0 mm 7 mps 681 mmHg 71%
23:00 -2°C° 0 mm 7 mps 681 mmHg 70%

21 January, Thursday

Time Temperature Precipitation Wind Pressure Humidity
00:00 -2°C° 0 mm 7 mps 681 mmHg 71%
01:00 -2°C° 0 mm 8 mps 681 mmHg 74%
02:00 -3°C° 0 mm 9 mps 681 mmHg 78%
03:00 -3°C° 0 mm 9 mps 680 mmHg 81%
04:00 -3°C° 0 mm 10 mps 680 mmHg 82%
05:00 -3°C° 0 mm 10 mps 680 mmHg 83%
06:00 -3°C° 0 mm 10 mps 679 mmHg 87%
07:00 -2°C° 0 mm 10 mps 679 mmHg 87%
08:00 -2°C° 0 mm 10 mps 680 mmHg 87%
09:00 -2°C° 0 mm 10 mps 680 mmHg 87%
10:00 0°C° 0 mm 10 mps 680 mmHg 88%
11:00 0°C° 0 mm 10 mps 680 mmHg 93%
12:00 0°C° 0 mm 10 mps 680 mmHg 89%
13:00 +1°C° 0 mm 9 mps 680 mmHg 88%
14:00 +1°C° 0 mm 10 mps 680 mmHg 86%
15:00 0°C° 0 mm 9 mps 679 mmHg 90%
16:00 0°C° 0 mm 8 mps 679 mmHg 87%
17:00 +1°C° 0 mm 6 mps 679 mmHg 81%
18:00 +1°C° 0 mm 5 mps 679 mmHg 78%
19:00 +1°C° 0 mm 5 mps 679 mmHg 80%
20:00 +1°C° 0 mm 6 mps 679 mmHg 81%
21:00 +2°C° 0 mm 7 mps 679 mmHg 82%
22:00 +2°C° 0 mm 7 mps 679 mmHg 80%
23:00 +2°C° 0 mm 7 mps 679 mmHg 79%
Show more